Regional Weather Roundup
Issued by NWS

Home | Current Version | Previous Version | Graphics & Text | Print | Product List | Glossary On
Versions: 1 2 3 4 5 6 7 8 9 10 11 12 13 14 15 16 17 18 19 20 21 22 23 24 25 26 27 28 29 30 31 32 33 34 35 36 37 38 39 40 41 42 43 44 45 46 47 48 49 50
000
ASUS43 KDMX 242307
RWRIA

WEATHER ROUNDUP FOR IOWA
NATIONAL WEATHER SERVICE DES MOINES IA
500 PM CST WED DEC 24 2014

NOTE: "FAIR" INDICATES FEW OR NO CLOUDS BELOW 12,000 FEET WITH NO
SIGNIFICANT WEATHER AND/OR OBSTRUCTIONS TO VISIBILITY.

* - THESE STATIONS ARE NOT NWS STATIONS...THUS NOT UNDER NWS
QUALITY CONTROL.  THEY ALSO DO NOT REPORT WEATHER SUCH
AS PRECIPITATION OR FOG.

IAZ001>003-012>014-020>022-031>034-043>046-250000-
   NORTHWEST IOWA

CITY           SKY/WX    TMP DP  RH WIND       PRES   REMARKS
CARROLL *      CLOUDY    30  28  93 NW10      29.72F WCI  21
CHEROKEE *     CLOUDY    27  27 100 W10       29.72S FOG     WCI  17
DENISON *      CLOUDY    28  28 100 W12       29.72F FOG     WCI  18
LE MARS *      CLOUDY    27  27 100 SW7       29.71F WCI  19
ORANGE CITY *  CLOUDY    27  25  93 W7        29.69F FOG     WCI  19
SHELDON *      CLOUDY    27  27 100 W8G16     29.68S FOG     WCI  18
SIOUX CITY     CLOUDY    29  25  85 W7        29.73F WCI  22
SPENCER        CLOUDY    29  26  89 W13       29.68F WCI  19
STORM LAKE *   FOG       27  27 100 W12       29.71S VSB 3/4 WCI  16
$$

IAZ055>058-069>071-079>083-090>094-250000-
   SOUTHWEST IOWA

CITY           SKY/WX    TMP DP  RH WIND       PRES   REMARKS
ATLANTIC *     CLOUDY    30  28  93 SW8       29.75S WCI  23
AUDUBON *      CLOUDY    30  25  80 SW10      29.74S HAZE    WCI  21
CLARINDA *     CLOUDY    32  30  93 W9        29.81R WCI  24
COUNCIL BLFS * CLOUDY    30  30 100 W10       29.76S WCI  21
CRESTON *      CLOUDY    30  30 100 W9        29.76R WCI  22
HARLAN  *      CLOUDY    28  28 100 W7        29.78S WCI  21
LAMONI         CLOUDY    33  29  85 W15       29.75R WCI  23
RED OAK *      CLOUDY    30  30 100 W8        29.78S WCI  23
SHENANDOAH *   CLOUDY    32  30  93 W13       29.81R WCI  22
$$

IAZ047>049-059>061-072>074-084-250000-
   CENTRAL IOWA

CITY           SKY/WX    TMP DP  RH WIND       PRES   REMARKS
AMES           CLOUDY    33  29  85 NW9       29.71S WCI  25
ANKENY *       CLOUDY    34  30  86 NW10G16   29.72S WCI  26
CHARITON *     CLOUDY    34  30  86 MISG      29.73R
DES MOINES     FLURRIES  34  31  88 W7        29.73R WCI  28
GRINNELL*      CLOUDY    34  32  93 W14       29.70R WCI  24
KNOXVILLE *    CLOUDY    34  30  86 W10       29.71R WCI  26
MARSHALLTOWN   CLOUDY    33  30  88 NW13      29.68R WCI  24
PELLA *        CLOUDY    34  32  93 NW14      29.73R WCI  24
PERRY *        CLOUDY    32  32 100 NW10      29.73S WCI  24
$$

IAZ004>006-015-016-023>025-035-036-250000-
   NORTH CENTRAL IOWA

CITY           SKY/WX    TMP DP  RH WIND       PRES   REMARKS
ALGONA *       CLOUDY    32  32 100 W9        29.68F WCI  24
CLARION *      CLOUDY    32  32 100 NW10      29.69S WCI  24
ESTHERVILLE    CLOUDY    30  27  88 W8        29.66  WCI  22
FORT DODGE *   CLOUDY    32  27  80 W7        29.70F WCI  26
MASON CITY     CLOUDY    32  29  88 W14       29.67F WCI  22
FOREST CITY *  CLOUDY    32  30  93 W10       29.66F WCI  24
IOWA FALLS *   CLOUDY    32  30  93 W13       29.69S WCI  22
$$

IAZ007>011-017>019-026>030-037>042-050>054-066-250000-
   NORTHEAST IOWA

CITY           SKY/WX    TMP DP  RH WIND       PRES   REMARKS
CEDAR RAPIDS   CLOUDY    35  32  88 W17       29.64R WCI  25
CHARLES CITY * CLOUDY    34  34 100 NW13      29.64F WCI  25
CLINTON *      CLOUDY    36  30  80 NW13      29.61S WCI  27
DECORAH *      CLOUDY    34  32  93 NW12G18   29.60S WCI  25
DUBUQUE        CLOUDY    34  31  88 NW12      29.58R WCI  25
MONTICELLO *   CLOUDY    36  34  93 NW17G23   29.62R WCI  25
OELWEIN *      CLOUDY    34  32  93 NW17      29.64R WCI  23
WATERLOO       LGT RAIN  34  31  88 NW12      29.65R WCI  25
$$

IAZ064-065-067-068-078-250000-
   EAST CENTRAL IOWA

CITY           SKY/WX    TMP DP  RH WIND       PRES   REMARKS
DAVENPORT      CLOUDY    36  31  82 NW13      29.61R WCI  27
IOWA CITY      CLOUDY    37  32  82 NW12      29.67R WCI  29
MT. PLEASANT * CLOUDY    36  32  87 W12G18    29.68R WCI  27
MUSCATINE *    CLOUDY    37  34  87 NW16G24   29.65R WCI  28
QUAD CITIES    CLOUDY    37  31  78 W10       29.61R WCI  30
$$

IAZ062-063-075>077-085>089-095>099-250000-
   SOUTHEAST IOWA

CITY           SKY/WX    TMP DP  RH WIND       PRES   REMARKS
BURLINGTON     CLOUDY    37  33  85 NW10      29.65R WCI  30
FAIRFIELD *    CLOUDY    36  32  87 NW17      29.69R WCI  25
FORT MADISON * CLOUDY    37  36  93 W16G22    29.67R WCI  28
KEOKUK *       CLOUDY    37  34  87 NW13      29.67S WCI  29
OSKALOOSA *    CLOUDY    34  32  93 NW20      29.71R WCI  22
CENTERVILLE *  CLOUDY    32  32 100 W13       29.74R WCI  22
OTTUMWA        CLOUDY    35  31  85 NW13G22   29.70R WCI  26
WASHINGTON *   CLOUDY    37  37 100 W16       29.67R WCI  28
$$

ABBREVIATIONS USED IN REMARKS
   TC - TEMPERATURES IN CELSIUS
  WCI - WIND CHILL INDEX
   HX - HEAT INDEX
  VSB - VISIBILITY
$$




USA.gov is the U.S. government's official web portal to all federal, state and local government web resources and services.